www.pogodaiklimat.ru
ПОГОДА в Маме

Архив погоды в Маме (Иркутская область, Россия)

Время
(UTC), дата
00 15.07
03 15.07
06 15.07
09 15.07
12 15.07
15 15.07
18 15.07
21 15.07
00 16.07
03 16.07
06 16.07
09 16.07
12 16.07
15 16.07
18 16.07
21 16.07
00 17.07
03 17.07
06 17.07
09 17.07
12 17.07
15 17.07
18 17.07
21 17.07
00 18.07
03 18.07
06 18.07
09 18.07
12 18.07
15 18.07
18 18.07
21 18.07
00 19.07
03 19.07
06 19.07
09 19.07
12 19.07
15 19.07
18 19.07
21 19.07
00 20.07
03 20.07
06 20.07
09 20.07
12 20.07
15 20.07
18 20.07
21 20.07
00 21.07
03 21.07
06 21.07
09 21.07
12 21.07
15 21.07
18 21.07
21 21.07
Ветер
(напр.,м/с)
Видим. Явления Облачность Т
(С)
Тd
(С)
f
(%)
Тe
(С)
Тes
(С)
Комфортность P
(гПа)
Po
(гПа)
Тmin
(С)
Tmax
(С)
R
(мм)
R24
(мм)
S
(см)
штиль 0 20 км {ливн. дождь} 10/8 1320 м
[Cb cap Ac As]
+16.5 +16.0 97 +16 +17 1006.4 980.4 +14.8 0.9
ЮВ 1 20 км 10/8 1320 м
[Cb cap Ac As]
+19.3 +16.7 85 +22 +23 комфорт 1005.7 979.9
В 1 20 км 10/8 1380 м
[Cb cap Ac As]
+21.0 +16.4 75 +26 +27 душно 1005.0 979.4
В 2 20 км 10/4 1000 м
[Cb cap Ac As]
+22.1 +16.4 70 +26 +27 душно 1004.2 978.7
штиль 0 20 км 10/4 1000 м
[Cb cap Ac As]
+19.6 +15.9 79 +21 +22 комфорт 1004.9 979.2 +24.0
ЮВ 1 20 км 10/4 1000 м
[Cb cap Ac As]
+17.5 +16.2 92 +19 +19 1005.3 979.4
В 1 20 км 10/4 1000 м
[Cb cap Ac As]
+16.2 +15.2 94 +17 +17 1005.5 979.5
штиль 0 20 км 10/3 1000 м
[Cb cap Ac As]
+15.9 +15.0 94 +16 +16 1005.7 979.7
ЮВ 1 20 км 10/3 1000 м
[Cb cap Ac As]
+15.9 +14.9 94 +17 +18 1006.2 980.2 +15.3
штиль 0 20 км 10/5 1000 м
[Cb cap Ac As]
+20.1 +15.6 75 +22 +25 комфорт 1005.2 979.5
В 1 10 км гроза без осадков 10/5 1000 м
[Cb cap Ac trans Ci fib]
+23.8 +15.7 60 +27 +31 жарко 1003.4 978.1
З 4 10 км дым {гроза} 8/3 1500 м
[Cb cap Ac trans Ci fib]
+23.4 +16.4 65 +28 +30 душно 1002.7 977.4
ЮЗ 1 10 км дым {гроза} 6/0
[Ac trans Ci fib]
+20.6 +15.6 73 +25 +25 комфорт 1003.4 977.8 +26.1
штиль 0 10 км дым 6/0
[Ci fib]
+15.5 +15.0 97 +15 +15 1004.5 978.4
штиль 0 10 км дым 6/0
[Ci fib]
+14.3 +13.9 97 +14 +14 1005.3 979.1
В 1 4000 м дым 10/5 600 м
[St Ci fib]
+15.1 +14.9 99 +16 +16 1005.5 979.4
В 1 10 км дым 10/5 600 м
[Cb cap Ci fib]
+17.1 +16.3 95 +18 +21 1005.7 979.7 +14.3
СВ 3 20 км 10/5 1000 м
[Cb cap Ci ing]
+22.0 +13.6 59 +25 +29 комфорт 1004.0 978.5
ЮВ 3 10 км гроза без осадков 10/5 1000 м
[Cb cap Ci ing]
+24.3 +16.3 61 +28 +32 душно 1003.2 977.9
СВ 1 10 км дым {гроза, ливн. дождь} 10/3 1000 м
[Cb cap Ci fib]
+23.5 +16.3 64 +27 +30 душно 1002.9 977.6
штиль 0 10 км дым {гроза, ливн. дождь} 10/0
[Cs]
+21.4 +16.5 74 +25 +25 комфорт 1003.1 977.6 +25.4 0.8
ЮВ 1 20 км 8/0
[Ci fib]
+17.3 +16.1 93 +18 +18 1004.3 978.3
ЮВ 2 20 км 4/0
[Ci fib]
+15.6 +15.1 97 +15 +15 1004.5 978.4
В 1 4000 м дымка 10/5 600 м
[St Ci fib]
+15.3 +15.1 99 +16 +16 1005.0 978.9
ЮВ 2 4000 м дымка 10/10 630 м
[St]
+16.2 +14.6 90 +16 +16 1004.7 978.7 +15.1
В 1 10 км дым 3/3 1500 м
[Cb cap]
+22.7 +17.4 72 +28 +38 душно 1002.0 976.7
СЗ 4 10 км дым 5/5 1500 м
[Cb cap]
+28.8 +15.7 45 +32 +36 душно 998.6 973.8
ЮВ 3 20 км в посл. час гроза 8/8 1380 м
[Cb cap]
+23.5 +16.3 64 +27 +28 душно 999.4 974.2
В 1 20 км {гроза} 6/3 1000 м
[Cb cap Ac trans Ci fib]
+21.6 +17.2 76 +26 +26 душно 999.6 974.2 +29.9
Ю 1 20 км 4/0
[Ci fib]
+15.1 +14.4 96 +16 +16 1000.2 974.2
штиль 0 20 км 10/5 600 м
[St Ci fib]
+14.3 +13.9 97 +14 +14 1000.1 974.0
З 1 4000 м дымка 10/10 630 м
[St]
+16.2 +16.0 99 +17 +17 999.9 974.0
Ю 1 4000 м дымка 10/10 750 м
[St]
+16.7 +14.8 89 +18 +18 999.9 974.1 +14.0
СВ 1 20 км 6/4 1000 м
[Cu med, cong Ci fib]
+22.4 +16.7 70 +27 +35 душно 997.9 972.6
З 3 20 км гроза без осадков 10/6 1380 м
[Cb cap Ci fib]
+27.8 +16.4 50 +31 +35 душно 996.2 971.4
СЗ 4 20 км {гроза} 10/6 1380 м
[Cb cap Ci fib]
+24.6 +17.8 66 +29 +30 душно 997.7 972.6
Ю 1 20 км {гроза, ливн. дождь} 6/0
[Ci fib]
+22.0 +19.3 85 +27 +28 душно 999.0 973.7 +30.8 0.1
Ю 1 20 км ясно +16.7 +15.9 95 +18 +18 1000.9 975.0
штиль 0 20 км 4/4 600 м
[St]
+14.1 +13.6 97 +14 +14 1002.1 976.0
ЮВ 2 4000 м дымка 10/10 450 м
[St]
+15.9 +15.4 97 +16 +16 1003.3 977.3
В 2 20 км 5/0
[Ac trans]
+17.2 +15.1 87 +18 +21 1004.1 978.1 +13.8
В 2 20 км 3/0
[Ci fib]
+23.8 +16.1 62 +27 +39 жарко 1002.5 977.2
Ю 1 20 км 3/1 1500 м
[Cu hum Ci fib]
+29.4 +12.2 35 +30 +43 жарко 1001.0 976.2
В 2 20 км 5/1 1500 м
[Cu hum Ac trans Ci fib]
+30.4 +13.0 34 +31 +35 жарко 999.9 975.1
З 1 20 км 8/0
[Ci fib]
+26.3 +16.8 56 +30 +30 душно 1000.2 975.2 +30.9
штиль 0 20 км ясно +16.3 +15.1 93 +16 +16 1002.8 976.8
штиль 0 20 км ясно +14.6 +13.3 92 +14 +14 1003.1 977.0
штиль 0 20 км ясно +12.0 +11.6 97 +11 +12 1003.3 977.0
ЮВ 2 20 км ясно +18.6 +15.0 80 +20 +25 1002.3 976.6 +11.8
В 3 20 км 8/0
[Ci fib]
+25.9 +16.9 58 +30 +38 душно 999.3 974.3
ЮВ 2 20 км 8/0
[Ci fib]
+30.9 +15.0 38 +33 +43 душно 997.3 972.7
ЮВ 3 20 км 10/5 1000 м
[Cb cap Ac trans Ci ing]
+31.2 +16.9 42 +35 +36 очень душно 995.7 971.2
З 4 {10} 20 км {гроза} 10/5 1000 м
[Cb cap Ci ing]
+23.1 +17.1 69 +28 +28 душно 997.7 972.4 +32.4
ЮЗ 2 20 км 8/3 1000 м
[Cb cap Ac trans Ci fib]
+20.3 +19.2 93 +25 +25 комфорт 998.7 973.3
Ю 1 20 км 8/0
[Ac trans Ci fib]
+16.9 +16.4 97 +18 +18 1000.1 974.3
СЗ 2 20 км 10/3 1000 м
[Cb cap Ac trans Ci fib]
+17.0 +16.3 96 +17 +17 1000.9 975.0
Местоположение метеостанции Мама (Иркутская область, Россия): широта 58.32 долгота 112.80 высота над уровнем моря 224 м.
В архиве по умолчанию представлена погода в Маме за последнюю неделю. Архивные данные за месяц целиком и за предыдущие месяцы, начиная с января 2011 года, Вы можете получить, выбрав интересующий диапазон дат из раскрывающегося списка и нажав кнопку "Найти!".
*Определитесь, кто Вы:
Внимание! Время в таблицах - всемирное. Для получения местного времени необходимо прибавить поправку, которая равна 8 ч.
Некоторые строки с данными для отдельных станций могут быть выделены курсивом. Это означает, что фактические данные отсутствуют по различным причинам, а приведенные значения являются расчетными модельными данными для данного пункта наблюдений.
Смотрите также архив погоды в соседних городах и на ближайших метеорологических станциях:
Партнеры нашего сайта:      
Пояснения к столбцам:
  • Ветер - указаны скорость ветра в м/с - средняя за 10 мин, порывы в срок и между сроками (в фигурных скобках) и направление, откуда дует ветер: С - северный,
  • СВ - северо-восточный, В - восточный, ЮВ - юго-восточный, Ю - южный, ЮЗ - юго-западный, З - западный, СЗ - северо-западный.
  • Видимость - горизонтальная дальность видимости в метрах или километрах. При видимости от 1 до 10 км при отсутствии осадков обычно наблюдается дымка, при ухудшении видимости до 1 км и менее - туман. В сухую погоду видимость может ухудшаться дымом, пылью или мглою.
  • Явления - указаны атмосферные явления, наблюдавшиеся в срок или в последний час перед сроком; фигурными скобками обозначены явления, наблюдавшиеся между сроками (за 1-3 часа до срока); квадратными скобками обозначены град или гололедные отложения с указанием их диаметра в мм.
  • Облачность - указаны через наклонную черту общая и нижняя облачность в баллах и высота нижней границы облаков в метрах; квадратными скобками обозначены формы облаков: Ci - перистые, Cs - перисто-слоистые, Cc - перисто-кучевые, Ac - высококучевые, As - высокослоистые, Sc - слоисто-кучевые, Ns - слоисто-дождевые, Cu - кучевые, Cb - кучево-дождевые. Подробнее классификацию облаков см. в Атласе облаков (PDF).
  • T - Температура воздуха - температура, измеренная на высоте 2 м над землей.
  • Td - Температура точки росы - температура, при понижении до которой содержащийся в воздухе водяной пар достигнет насыщения.
  • f - Относительная влажность воздуха - влажноcть воздуха, измеренная на высоте 2 м над землей.
  • Te - Эффективная температура - температура, которую ощущает одетый по сезону человек в тени. Характеристика душности погоды. При расчете учитывается влияние влажности воздуха и скорости ветра на теплоощущения человека.
  • Tes - Эффективная температура на солнце - температура, которую ощущает человек, с поправкой на солнечный нагрев. Характеристика знойности погоды. Зависит от высоты солнца над горизонтом, облачности и скорости ветра. Ночью, в пасмурную погоду, а также при ветре 12 м/с и более поправка равна нулю.
  • P - Атмосферное давление - приведенное к уровню моря атмосферное давление.
  • Po - Атмосферное давление - измеренное на уровне метеостанции атмосферное давление.
  • Tmin - Минимальная температура - минимум температуры воздуха на высоте 2 м над землей.
  • Tmax - Максимальная температура - максимум температуры воздуха на высоте 2 м над землей.
  • R - Количество осадков - Количество выпавших осадков за период времени, мм. При наведении курсора мыши на число - период времени, за который выпало указанное количество осадков.
  • R24 - Количество осадков - Количество выпавших осадков за 24 часа, мм.
  • S - Снежный покров - Высота снежного покрова, см. При наведении курсора мыши на число - состояние снежного покрова и степень покрытия местности в баллах.